Hourly Data Report for October 13, 2014

All times are specified in Local Standard Time (LST). Add 1 hour to adjust for Daylight Saving Time where and when it is observed.

WINNIPEG A CS
MANITOBA

49°55'00.000" N
97°14'58.000" W
238.70 m
502S001
71849
XWG

Download Data

Hourly Data (October 2014)
Hourly Data Report for October 13, 2014
Temp Definition
°C
Dew Point Temp Definition
°C
Rel Hum Definition
%
Wind Dir Definition
10's deg

Wind Spd Definition
km/h
Visibility Definition
km
Stn Press Definition
kPa
Hmdx Definition


Wind Chill Definition


Weather Definition


TIME
00:00 5.2 3.7 90 29 7   97.83     LegendNANA
01:00 5.1 3.6 90 30 9   97.87     LegendNANA
02:00 3.1 1.8 91 30 13   97.92     LegendNANA
03:00 2.7 0.9 88 28 12   97.96     LegendNANA
04:00 4.0 2.9 92 28 13   97.99     LegendNANA
05:00 3.6 2.3 91 28 14   98.02     LegendNANA
06:00 2.1 1.2 94 29 12   98.05     LegendNANA
07:00 2.0 1.1 94 28 6   98.14     LegendNANA
08:00 3.1 2.0 92 27 11   98.21     LegendNANA
09:00 7.1 4.9 86 30 14   98.29     LegendNANA
10:00 10.5 5.3 70 31 9   98.32     LegendNANA
11:00 13.7 6.0 60 27 7   98.32     LegendNANA
12:00 15.8 5.6 51 25 9   98.34     LegendNANA
13:00 16.9 5.6 47 30 15   98.32     LegendNANA
14:00 17.2 4.6 43 29 17   98.31     LegendNANA
15:00 17.4 3.0 38 32 22   98.33     LegendNANA
16:00 16.7 1.8 36 32 21   98.37     LegendNANA
17:00 15.4 1.8 40 33 11   98.40     LegendNANA
18:00 11.1 2.0 53   0   98.42     LegendNANA
19:00 9.4 2.2 61 16 3   98.43     LegendNANA
20:00 6.0 1.2 72 22 2   98.44     LegendNANA
21:00 5.8 2.6 80 23 6   98.45     LegendNANA
22:00 4.0 0.7 79 19 3   98.44     LegendNANA
23:00 5.4 1.6 76 21 4   98.47     LegendNANA

Notes on Data Quality.

Legend

  • E = Estimated
  • M = Missing
  • NA = Not Available
  • ‡ = Partner data that is not subject to review by the National Climate Archives
Date modified: